Погода в Чульмане

Россия / Республика Саха (Якутия)     56°50′26″N   124°54′16″E
темп.,
°C
ветер,
м/с
пор.,
м/с
влажн.,
%
обл.,
%
осадки,
мм/ч
давл.,
гПа
погр.,
м
1 марта, пн
пн100:00−30сз2899100 0.1 1037256
03:00−32сз2299100 0.1 103827
06:00−33ссз11100100 0.1 103819
09:00−31сз0199100 0.1 103746
12:00−27ссз3688100 0.0 1034974
15:00−25ссз3681100 0.1 10321313
18:00−29всв0199100 0.1 103219
21:00−31ююз1197100 0.1 103319
2 марта, вт
вт200:00−34ю129498 0.0 103319
03:00−34ю129699 0.0 103219
06:00−36ююв129584 0.0 103219
09:00−34ююв129142 0.0 103156
12:00−26ююв24820 0.0 1027413
15:00−24ююв35780 0.0 1024685
18:00−28юв238922 0.0 102457
21:00−30юв229360 0.0 102530
3 марта, ср
ср300:00−29юв2297100 0.1 102326
03:00−30юв1299100 0.2 102226
06:00−31юв1199100 0.1 102020
09:00−29вюв0198100 0.3 1020114
12:00−25с0190100 0.1 1017498
15:00−23ссз1185100 0.1 1015750
18:00−27с2296100 0.0 101721
21:00−30сз12100100 0.1 102019
4 марта, чт
чт400:00−33сз12100100 0.0 102219
03:00−35ссз22100100 0.1 102421
06:00−36ссз22100100 0.0 102724
09:00−34ссз3899100 0.1 1029340
12:00−30ссз5989100 0.0 1029994
15:00−28ссз5987100 0.1 10291189
18:00−29ссз51091100 0.1 10301063
21:00−30ссз41295100 0.1 1033996
5 марта, пт
пт500:00−30сз41294100 0.1 10341009
03:00−29сз51294100 0.1 10341106
06:00−30ссз51394100 0.1 10351157
09:00−30ссз61391100 0.2 10371099
12:00−28ссз61290100 0.1 1036992
15:00−26сз61189100 0.1 10351039
18:00−26ссз41090100 0.1 1036922
21:00−30сз239599 0.1 103830